Galesburg, IL

6:43 PM CDT on September 25, 2016 (GMT -0500)
Galesburg Municipal

Weather History for KGBG - March, 2012

Change the Weather History Date:

Sunday, March 18, 2012

  Actual Average Record
Temperature  
Mean Temperature 71 °F -  
Max Temperature 82 °F 47 °F 82 °F (2012)
Min Temperature 60 °F 30 °F 7 °F (1960)
Cooling Degree Days 6    
Growing Degree Days 21 (Base 50)    
Moisture  
Dew Point 56 °F    
Average Humidity 63    
Maximum Humidity 83    
Minimum Humidity 38    
Precipitation  
Precipitation 0.00 in - - ()
Sea Level Pressure  
Sea Level Pressure 29.96 in    
Wind  
Wind Speed 9 mph (SSE)    
Max Wind Speed 20 mph    
Max Gust Speed 26 mph    
Visibility 10 miles    
Events Rain , Thunderstorm    
Averages and records for this station are not official NWS values.
T = Trace of Precipitation, MM = Missing Value Source: NWS Daily Summary

Daily Weather History Graph

Daily Weather History Graph

Search for Another Location

Airport or City:

Trip Planner

Search our weather history database for the weather conditions in past years. The results will help you decide how hot, cold, wet, or windy it might be!

Date:

Astronomy

Mar. 18, 2012 Rise Set
Actual Time 7:07 AM CDT 7:12 PM CDT
Civil Twilight 6:40 AM CDT 7:39 PM CDT
Nautical Twilight 6:08 AM CDT 8:11 PM CDT
Astronomical Twilight 5:35 AM CDT 8:44 PM CDT
Moon 4:48 AM CDT (3/18) 3:37 PM CDT (3/18)
Length of Visible Light 12h 59m
Length of Day
12h 04m
Waning Crescent, 15% of the Moon is Illuminated
Mar 18
Waning Crescent
Mar 22
New
Mar 30
First Quarter
Apr 6
Full
Apr 13
Last Quarter

Hourly Weather History & Observations

Time (CDT) Temp. Heat Index Dew Point Humidity Pressure Visibility Wind Dir Wind Speed Gust Speed Precip Events Conditions
12:15 AM 62.2 °F - 50.9 °F 66% 29.98 in 10.0 mi SE 6.9 mph - N/A   Clear
12:35 AM 61.7 °F - 50.9 °F 68% 29.98 in 10.0 mi SE 5.8 mph - N/A   Clear
12:55 AM 62.2 °F - 51.6 °F 68% 29.97 in 10.0 mi SE 5.8 mph - N/A   Clear
1:15 AM 62.1 °F - 52.0 °F 70% 29.98 in 10.0 mi SSE 6.9 mph - N/A   Clear
1:35 AM 61.7 °F - 52.3 °F 71% 29.98 in 10.0 mi SE 8.1 mph - N/A Thunderstorm Scattered Clouds
1:55 AM 62.6 °F - 53.6 °F 72% 29.98 in 10.0 mi SE 10.4 mph - N/A Thunderstorm Mostly Cloudy
2:15 AM 62.6 °F - 54.7 °F 75% 29.98 in 10.0 mi South 11.5 mph - N/A Rain Light Rain
2:35 AM 62.2 °F - 55.6 °F 79% 29.98 in 10.0 mi SSE 9.2 mph - N/A Thunderstorm Thunderstorm
2:55 AM 61.9 °F - 55.8 °F 80% 29.97 in 10.0 mi SSE 5.8 mph - N/A Thunderstorm Mostly Cloudy
3:15 AM 61.5 °F - 55.8 °F 81% 29.97 in 10.0 mi SE 3.5 mph - N/A Thunderstorm Scattered Clouds
3:35 AM 60.8 °F - 55.6 °F 83% 29.96 in 10.0 mi SSE 5.8 mph - N/A Thunderstorm Scattered Clouds
3:55 AM 61.5 °F - 55.4 °F 80% 29.96 in 10.0 mi South 8.1 mph - N/A   Clear
4:15 AM 62.6 °F - 55.4 °F 77% 29.96 in 10.0 mi South 11.5 mph - N/A   Clear
4:35 AM 62.8 °F - 54.7 °F 75% 29.97 in 10.0 mi South 11.5 mph - N/A   Clear
4:55 AM 62.4 °F - 54.7 °F 76% 29.98 in 10.0 mi South 10.4 mph - N/A   Clear
5:15 AM 62.6 °F - 54.7 °F 75% 29.99 in 10.0 mi South 11.5 mph - N/A   Clear
5:35 AM 62.8 °F - 54.7 °F 75% 29.99 in 10.0 mi South 10.4 mph - N/A   Clear
5:55 AM 62.2 °F - 54.7 °F 76% 29.99 in 10.0 mi South 9.2 mph - N/A   Clear
6:15 AM 62.6 °F - 54.9 °F 76% 29.99 in 10.0 mi South 10.4 mph - N/A   Clear
6:35 AM 62.2 °F - 54.9 °F 77% 29.99 in 10.0 mi South 10.4 mph - N/A   Scattered Clouds
6:55 AM 61.7 °F - 54.7 °F 78% 30.00 in 10.0 mi SSE 5.8 mph - N/A   Scattered Clouds
7:15 AM 60.8 °F - 54.5 °F 80% 29.99 in 10.0 mi SSE 5.8 mph - N/A   Scattered Clouds
7:35 AM 60.6 °F - 54.5 °F 80% 29.99 in 10.0 mi SE 5.8 mph - N/A   Clear
7:55 AM 61.3 °F - 55.2 °F 80% 30.00 in 10.0 mi ESE 4.6 mph - N/A   Clear
8:15 AM 63.7 °F - 56.3 °F 77% 30.00 in 10.0 mi SE 8.1 mph - N/A   Mostly Cloudy
8:35 AM 65.3 °F - 57.2 °F 75% 30.01 in 10.0 mi SE 9.2 mph - N/A   Overcast
8:55 AM 65.3 °F - 57.2 °F 75% 30.01 in 10.0 mi ESE 8.1 mph - N/A   Overcast
9:15 AM 66.2 °F - 57.2 °F 73% 30.02 in 10.0 mi ESE 9.2 mph - N/A   Overcast
9:35 AM 68.2 °F - 57.7 °F 69% 30.02 in 10.0 mi SE 8.1 mph - N/A   Mostly Cloudy
9:55 AM 69.4 °F - 58.3 °F 68% 30.03 in 10.0 mi SE 11.5 mph 16.1 mph N/A   Mostly Cloudy
10:15 AM 70.2 °F - 58.5 °F 66% 30.03 in 10.0 mi SSE 15.0 mph - N/A   Mostly Cloudy
10:35 AM 72.3 °F - 59.2 °F 63% 30.02 in 10.0 mi SSE 11.5 mph - N/A   Mostly Cloudy
10:55 AM 71.8 °F - 58.6 °F 63% 30.02 in 10.0 mi SSE 12.7 mph - N/A   Overcast
11:15 AM 73.0 °F - 59.2 °F 62% 30.01 in 10.0 mi SSE 10.4 mph 16.1 mph N/A   Overcast
11:35 AM 74.5 °F - 58.8 °F 58% 30.01 in 10.0 mi SSE 12.7 mph - N/A   Overcast
11:55 AM 76.1 °F - 58.5 °F 54% 30.00 in 10.0 mi SSE 13.8 mph 19.6 mph N/A   Mostly Cloudy
12:15 PM 77.5 °F - 59.0 °F 53% 29.99 in 10.0 mi SSE 15.0 mph 18.4 mph N/A   Scattered Clouds
12:35 PM 78.8 °F - 59.0 °F 51% 29.98 in 10.0 mi SSE 13.8 mph 18.4 mph N/A   Scattered Clouds
12:55 PM 80.1 °F 80.8 °F 59.4 °F 49% 29.98 in 10.0 mi SSE 10.4 mph 16.1 mph N/A   Mostly Cloudy
1:15 PM 80.6 °F 80.9 °F 58.1 °F 46% 29.97 in 10.0 mi SSE 11.5 mph 16.1 mph N/A   Scattered Clouds
1:35 PM 81.3 °F 81.6 °F 58.5 °F 46% 29.96 in 10.0 mi South 11.5 mph 26.5 mph N/A   Clear
1:55 PM 81.3 °F 81.3 °F 57.7 °F 44% 29.95 in 10.0 mi SE 12.7 mph 19.6 mph N/A   Scattered Clouds
2:15 PM 81.9 °F 81.8 °F 57.7 °F 44% 29.95 in 10.0 mi SSE 15.0 mph 18.4 mph N/A   Mostly Cloudy
2:35 PM 82.6 °F 82.1 °F 56.5 °F 41% 29.94 in 10.0 mi South 19.6 mph 23.0 mph N/A   Mostly Cloudy
2:55 PM 82.8 °F 82.0 °F 55.6 °F 39% 29.92 in 10.0 mi SSE 16.1 mph 20.7 mph N/A   Scattered Clouds
3:15 PM 82.6 °F 81.7 °F 54.7 °F 38% 29.92 in 10.0 mi SSE 17.3 mph 23.0 mph N/A   Clear
3:35 PM 82.4 °F 81.7 °F 55.4 °F 39% 29.92 in 10.0 mi SSE 17.3 mph 25.3 mph N/A   Clear
3:55 PM 82.4 °F 81.7 °F 55.2 °F 39% 29.92 in 10.0 mi SSE 19.6 mph 25.3 mph N/A   Scattered Clouds
4:15 PM 82.0 °F 81.5 °F 55.2 °F 40% 29.91 in 10.0 mi SSE 13.8 mph 25.3 mph N/A   Scattered Clouds
4:35 PM 81.7 °F 81.2 °F 55.2 °F 40% 29.91 in 10.0 mi SSE 16.1 mph 26.5 mph N/A   Clear
4:55 PM 81.7 °F 81.1 °F 54.5 °F 39% 29.91 in 10.0 mi SSE 17.3 mph 21.9 mph N/A   Scattered Clouds
5:15 PM 81.7 °F 81.1 °F 54.7 °F 39% 29.91 in 10.0 mi SSE 15.0 mph 19.6 mph N/A   Scattered Clouds
5:35 PM 80.1 °F 80.0 °F 53.6 °F 40% 29.91 in 10.0 mi SSE 17.3 mph 24.2 mph N/A   Scattered Clouds
5:55 PM 78.4 °F - 55.4 °F 45% 29.91 in 10.0 mi SSE 13.8 mph 18.4 mph N/A   Clear
6:15 PM 77.5 °F - 55.8 °F 47% 29.91 in 10.0 mi SSE 10.4 mph 17.3 mph N/A   Clear
6:35 PM 77.0 °F - 56.7 °F 49% 29.91 in 10.0 mi SSE 11.5 mph - N/A   Clear
6:55 PM 76.1 °F - 57.6 °F 53% 29.90 in 10.0 mi SE 6.9 mph - N/A   Clear
7:15 PM 74.5 °F - 58.1 °F 57% 29.90 in 10.0 mi SE 6.9 mph - N/A   Clear
7:35 PM 73.4 °F - 59.0 °F 61% 29.90 in 10.0 mi SE 8.1 mph - N/A   Clear
7:55 PM 72.7 °F - 58.5 °F 61% 29.91 in 10.0 mi SE 8.1 mph - N/A   Clear
8:15 PM 71.8 °F - 59.0 °F 64% 29.92 in 10.0 mi SE 8.1 mph - N/A   Clear
8:35 PM 70.7 °F - 59.0 °F 66% 29.92 in 10.0 mi SSE 6.9 mph - N/A   Clear
8:55 PM 70.0 °F - 59.2 °F 68% 29.93 in 10.0 mi SSE 5.8 mph - N/A   Clear
9:15 PM 69.1 °F - 59.0 °F 70% 29.94 in 10.0 mi SE 4.6 mph - N/A   Clear
9:35 PM 68.5 °F - 58.8 °F 71% 29.93 in 10.0 mi SE 5.8 mph - N/A   Clear
9:55 PM 69.4 °F - 59.2 °F 70% 29.93 in 10.0 mi SE 4.6 mph - N/A   Clear
10:15 PM 69.6 °F - 59.4 °F 70% 29.93 in 10.0 mi SE 6.9 mph - N/A   Clear
10:35 PM 68.9 °F - 59.2 °F 71% 29.93 in 10.0 mi SE 5.8 mph - N/A   Clear
10:55 PM 69.8 °F - 59.0 °F 68% 29.92 in 10.0 mi SE 5.8 mph - N/A   Clear
11:15 PM 69.1 °F - 58.6 °F 69% 29.93 in 10.0 mi SE 5.8 mph - N/A   Clear
11:35 PM 68.4 °F - 58.6 °F 71% 29.93 in 10.0 mi SE 4.6 mph - N/A   Mostly Cloudy
11:55 PM 68.4 °F - 59.0 °F 72% 29.92 in 10.0 mi SE 5.8 mph - N/A   Overcast